Temp_Advection
nan nan nan nan nan nan nan nan nan nan nan nan nan nan nan nan nan nan nan nan nan nan nan nan nan nan nan nan nan nan nan nan nan nan nan nan nan nan nan nan nan nan nan nan
nan -0 -0 -0 0 -0 -0 0 0 0 0 -0 0 0 0 0 -0 0 -0 0 0 0 0 -0 -0 -0 -0 0 -0 -1 -1 -0 -0 -0 0 0 0 -0 0 0 -0 -0 -0 nan
nan -0 -0 -0 0 0 0 0 0 0 0 -0 -0 -0 -0 0 -0 -0 -0 -0 0 0 0 0 -0 -0 -0 -0 -0 -1 -0 0 -0 -0 -0 0 0 -0 1 -0 -0 -0 -1 nan
nan -0 -0 -0 0 0 -0 -1 -0 -0 -0 -0 -0 0 0 -0 -0 -0 0 0 0 0 0 -0 -0 -0 -0 -0 0 0 0 -0 -0 -0 0 1 1 -0 0 -0 -0 -0 -1 nan
nan -0 -0 -0 -0 -0 -0 -0 -0 -0 -0 0 0 0 -0 -0 -0 -0 0 0 -0 0 0 -0 -0 -0 0 0 0 0 -0 -0 0 -0 0 1 -1 0 -0 -1 -1 -1 -3 nan
nan -0 -0 -0 -0 -0 -0 -1 0 -0 -0 -0 -0 -0 -0 -0 -0 0 -0 -0 0 0 0 -0 -0 0 0 -0 -0 -0 -0 -0 -0 0 -0 0 -0 -0 -0 -1 -1 -1 -0 nan
nan -0 -0 -0 -0 -0 0 -0 -1 0 -0 -0 -0 -0 -0 -0 0 0 0 0 0 0 0 0 0 -0 -0 -0 -1 -0 -0 -0 0 -0 -0 0 0 -0 -0 -1 -0 0 -0 nan
nan -0 -0 -0 -0 0 -0 0 -0 -0 0 0 -0 -0 0 0 0 0 0 -0 0 0 -0 -0 -0 -0 -0 -0 -0 0 -0 -0 0 -0 -0 -0 0 0 -0 -0 0 -0 -0 nan
nan 0 -0 -0 -0 -0 -0 -0 -0 0 0 -0 0 0 0 0 0 0 0 0 0 -0 -0 0 0 -0 -0 -0 -0 0 0 -0 -0 -0 -0 -0 -0 -0 -0 -0 -0 -0 -0 nan
nan 0 -0 0 -0 -0 -0 -0 -0 0 0 0 0 -0 0 0 0 0 -0 -0 0 -0 -0 -0 0 -0 0 0 0 -0 0 0 0 -0 0 -0 -0 -0 -0 0 0 -0 -0 nan
nan 0 -0 -0 -0 -0 -0 -1 -0 0 0 0 0 0 0 0 -0 0 0 -0 -0 0 -0 -0 -0 0 0 0 0 0 -0 0 0 0 0 -0 -0 -0 -0 0 0 0 -0 nan
nan -0 -0 -0 -0 -0 -0 -0 -0 0 0 -0 0 0 0 0 0 0 -0 -0 -0 -0 -0 0 0 -0 -0 0 0 -0 -0 -0 -0 -0 -0 -0 -0 -0 -0 0 0 -0 0 nan
nan -0 -0 -0 -0 -0 -0 -0 0 -0 -0 -0 -0 -0 0 0 0 0 -0 -0 0 0 0 -0 0 -0 -0 -0 -0 0 0 0 -0 0 0 -0 -0 -0 0 0 -0 -0 -0 nan
nan 0 -0 -0 -0 -0 -0 -0 -0 -0 -0 -0 -0 0 0 0 0 0 0 0 -0 -0 -0 -0 0 0 -0 -0 0 0 0 0 -0 -0 -0 -0 -0 0 -0 -0 -0 -1 -1 nan
nan 0 0 -0 -1 -1 -0 -1 -0 -0 -0 0 -0 0 0 0 0 0 0 -0 -0 -0 -0 -0 0 0 -0 0 0 -0 -0 -0 -0 -0 -0 -0 0 0 0 -0 -0 -0 -1 nan
nan -0 -0 -0 -1 -0 0 -0 -0 -0 -0 -0 -0 -0 0 0 0 0 0 -0 -0 -0 0 0 -0 -0 0 -0 -0 -0 -1 -0 -0 -0 -0 0 0 0 0 0 -0 0 0 nan
nan -0 -0 -0 -1 -0 -0 -0 -0 0 -0 0 -0 -0 -0 -0 -0 -0 -0 -0 -0 -0 0 0 0 0 0 0 -0 -0 -0 -0 0 0 -0 -0 0 0 1 1 -0 0 0 nan
nan 0 -0 -0 -1 -0 -0 0 0 0 0 0 -0 -0 -0 -0 0 -0 -0 -0 -0 0 -0 -0 -0 -0 0 -0 -0 -0 0 0 0 0 0 0 -0 0 1 1 0 -0 0 nan
nan -0 -0 -0 -0 -0 0 -0 0 0 -0 -0 -0 0 -0 0 0 0 0 0 0 -0 0 0 0 0 -0 -0 -0 0 -0 -0 0 0 1 1 1 0 1 0 0 -0 -1 nan
nan -0 -0 -0 -0 -0 -0 0 0 0 0 0 -0 -0 0 0 0 -0 -0 -0 -0 -0 -0 -0 -0 -0 -0 -0 0 -0 -0 0 -0 -1 -0 0 0 0 0 1 0 0 -0 nan
nan -0 -0 0 0 0 0 -0 0 0 0 0 -0 0 -0 0 0 -0 -0 -0 -0 -0 -0 -0 0 0 -0 -0 -0 0 0 0 0 -0 -0 -1 -0 -0 -0 0 1 1 0 nan
nan 0 0 0 0 0 -0 -0 -0 -0 0 0 0 0 -0 0 0 -0 -0 0 0 0 0 -0 0 0 -0 0 0 0 1 1 0 0 0 0 0 0 -0 -0 0 0 0 nan
nan 0 0 -0 0 0 0 0 0 0 0 0 -0 0 0 -0 -0 -0 0 0 0 -0 -0 0 0 -0 0 0 0 0 1 1 0 0 1 1 1 1 1 -0 0 0 0 nan
nan 0 0 0 0 0 0 0 0 -0 -0 0 -0 -0 0 0 -0 -0 0 0 -0 0 0 0 -0 -0 0 0 0 0 0 1 1 1 1 1 1 1 1 1 0 0 0 nan
nan 0 -0 0 -0 -0 -0 -0 -0 -0 0 -0 -0 -0 -0 -0 -0 0 0 0 0 -0 0 0 -0 0 0 0 0 0 0 0 1 1 1 1 1 0 0 1 1 0 0 nan
nan -0 -0 -0 -0 0 -0 -0 -0 -0 0 1 -0 -0 0 -0 -0 0 0 0 -0 0 0 -0 -0 0 0 0 0 0 1 1 1 1 1 1 1 1 0 0 1 1 1 nan
nan nan nan nan nan nan nan nan nan nan nan nan nan nan nan nan nan nan nan nan nan nan nan nan nan nan nan nan nan nan nan nan nan nan nan nan nan nan nan nan nan nan nan nan
Wind_Speed
30 32 33 37 42 22 19 11 2 17 51 7 3 4 8 6 5 4 2 3 5 6 7 5 8 10 7 10 11 10 9 4 4 12 12 14 15 10 15 10 8 5 4 14
29 31 31 34 36 19 20 8 5 31 42 5 5 7 4 4 4 5 5 6 5 8 6 6 10 8 8 15 11 13 11 5 4 8 1 10 9 16 18 11 9 11 2 9
27 30 29 33 37 20 15 5 3 9 20 5 12 9 6 5 7 5 6 4 7 7 7 9 4 6 4 7 15 13 17 3 7 8 8 3 7 10 16 14 7 8 13 19
26 28 26 31 35 22 8 11 3 7 5 6 10 5 9 11 7 7 14 5 15 8 6 9 10 10 6 5 13 11 10 6 10 16 18 18 20 23 15 17 19 7 12 7
23 28 25 27 32 24 1 1 4 5 7 18 13 13 8 11 13 7 7 11 12 15 9 9 6 9 8 7 4 9 4 7 3 19 20 22 17 16 16 18 16 15 23 3
23 25 23 24 28 19 7 15 3 7 12 8 6 7 7 12 7 8 16 14 13 12 17 22 18 4 6 3 2 6 5 4 2 11 12 14 1 3 1 8 11 11 3 2
22 24 21 22 23 17 16 17 8 3 4 9 9 6 8 9 11 7 6 17 11 8 14 10 14 18 16 14 10 11 4 9 6 7 12 4 2 3 7 11 9 5 8 4
22 22 18 20 20 21 13 15 6 2 4 6 8 11 5 8 13 13 16 18 21 18 5 3 3 3 4 6 6 9 10 4 2 4 4 6 4 5 1 3 2 2 6 5
21 23 16 18 21 21 13 5 1 2 4 4 7 6 6 3 3 2 4 10 17 16 3 3 4 4 3 4 2 2 4 2 3 3 4 2 4 2 3 2 2 4 2 4
20 23 16 18 21 21 12 8 3 1 3 3 10 3 3 4 2 2 3 5 3 10 4 3 3 3 4 5 5 4 4 1 6 3 3 7 7 6 7 3 3 3 3 4
18 23 15 18 19 21 10 7 11 3 2 7 10 11 7 5 4 1 1 4 2 2 2 3 3 2 5 3 4 5 5 6 4 3 2 6 4 6 3 3 1 3 4 6
19 22 13 18 18 19 10 3 14 7 2 2 10 11 12 8 11 4 3 4 1 6 3 1 2 1 2 4 3 2 4 6 4 7 5 3 4 3 4 5 3 3 1 7
21 18 16 19 19 18 7 5 11 10 6 6 9 10 13 14 14 11 5 4 1 0 1 3 2 2 4 4 5 3 3 3 2 1 2 5 8 5 2 4 3 6 9 17
17 18 18 19 18 15 6 3 13 13 3 1 3 5 4 5 7 8 10 10 6 5 1 0 2 1 5 3 2 3 5 6 5 4 6 6 9 8 3 3 6 10 13 15
19 20 20 18 19 8 6 12 14 15 4 1 2 1 1 2 3 5 4 5 6 2 2 2 3 3 3 0 1 3 5 6 4 5 5 2 2 10 9 8 10 11 15 21
23 22 21 19 16 6 6 4 12 18 13 3 2 1 1 2 4 4 5 6 5 2 3 3 2 2 2 2 2 5 9 9 9 2 3 5 2 12 13 12 13 13 17 21
23 22 20 17 11 8 5 5 3 17 15 2 2 2 1 3 3 3 2 2 2 2 2 3 1 2 2 2 3 3 7 11 11 7 7 7 13 8 15 16 18 18 20 22
21 19 15 8 11 9 5 4 6 21 8 3 1 1 2 5 2 1 2 2 2 3 2 1 1 1 0 3 6 5 4 6 10 12 6 4 13 20 19 20 22 24 24 24
15 10 5 9 9 7 7 10 18 22 4 5 2 3 2 4 1 1 2 1 1 2 2 1 1 1 4 5 5 6 10 7 8 7 8 14 20 24 24 25 27 29 28 26
5 17 6 5 12 9 14 8 12 5 5 3 2 4 1 3 1 1 1 3 0 1 1 2 1 3 8 6 5 2 9 8 13 16 12 18 25 27 27 28 28 28 29 28
11 4 2 12 24 8 3 3 3 2 1 4 5 7 3 4 1 2 1 1 1 1 3 1 2 3 3 3 10 6 9 12 13 5 8 18 24 31 31 29 27 28 28 28
2 1 6 19 4 3 3 2 1 2 4 4 3 5 5 4 2 2 1 1 0 3 2 1 3 3 3 2 4 7 12 15 12 6 9 17 23 28 28 27 28 27 26 25
2 2 3 3 2 3 6 7 2 3 3 9 7 3 5 4 3 3 2 2 2 2 1 4 4 2 4 3 2 8 14 14 12 12 15 17 26 27 27 29 27 27 25 23
1 1 3 3 3 3 3 3 3 3 5 19 17 5 3 4 2 1 3 0 1 1 2 5 2 5 7 5 6 11 13 12 12 16 20 25 28 28 27 27 27 26 25 23
1 1 1 0 1 2 3 4 3 1 14 20 8 6 3 2 3 1 3 1 3 5 4 3 2 10 9 8 9 12 14 14 16 20 25 29 30 30 30 26 24 23 24 23
1 2 1 2 1 1 2 3 2 7 21 12 4 3 2 1 4 3 6 6 6 4 3 2 10 11 8 10 12 13 14 17 20 23 27 29 30 31 30 28 24 23 22 21
1 1 0 2 4 3 2 2 4 10 14 2 3 4 6 3 2 2 4 5 3 2 2 11 11 10 12 13 14 14 16 19 24 29 31 32 29 29 30 30 26 23 21 19
Wind_Direction
332 332 335 343 343 351 357 166 179 176 176 149 183 166 150 140 153 158 84 107 127 181 183 231 217 223 232 188 144 179 206 240 246 240 226 205 212 233 229 230 239 235 294 278
334 332 335 344 346 346 346 144 119 170 154 145 144 143 133 134 123 178 164 172 186 197 208 229 228 215 234 229 164 173 172 225 285 298 137 225 230 230 233 240 263 253 276 287
335 332 335 347 347 350 347 140 167 133 177 196 157 136 158 164 196 160 165 174 171 195 214 214 258 229 270 216 199 195 169 230 214 241 273 312 254 249 224 214 240 258 245 255
334 331 338 349 346 344 318 187 157 155 166 160 158 147 155 185 179 218 193 223 211 204 217 224 223 226 278 284 214 190 170 256 245 260 273 269 257 252 228 215 227 233 299 234
335 334 338 353 348 351 311 318 163 161 121 140 156 179 200 190 204 184 202 221 205 213 218 206 204 214 206 228 184 168 206 263 311 274 275 277 261 252 222 218 219 238 258 220
336 335 334 355 352 357 344 345 116 149 153 159 158 181 163 204 187 222 223 214 233 210 228 230 232 254 308 260 289 189 178 227 252 281 298 312 98 260 235 162 178 211 144 222
334 336 333 351 352 348 338 330 328 121 161 179 202 181 196 208 200 218 242 228 232 222 270 251 233 272 287 281 258 218 215 227 262 295 301 359 135 184 192 156 252 32 37 36
333 336 330 346 348 348 339 344 289 190 132 174 170 202 191 230 240 238 243 234 246 222 140 114 156 226 233 229 211 189 207 181 280 278 301 288 32 355 7 177 250 357 127 126
333 333 327 347 345 345 344 308 277 36 123 204 125 169 183 197 216 228 228 283 258 209 169 180 168 184 163 190 186 81 131 212 175 342 318 305 232 300 324 268 9 351 83 170
332 331 328 350 342 340 334 289 209 115 118 128 171 164 159 177 185 235 280 276 107 167 159 149 150 185 164 167 190 156 142 175 223 253 276 285 261 282 308 68 242 345 316 210
327 329 323 343 338 338 328 266 213 145 108 176 204 200 186 180 211 240 287 273 201 122 197 144 182 155 203 141 207 173 162 153 192 199 249 289 345 337 39 229 309 329 300 221
322 328 318 334 330 331 323 306 195 186 218 249 229 228 241 265 241 212 192 311 276 180 152 198 104 124 134 162 206 237 205 185 182 184 215 257 321 303 332 336 347 348 285 183
319 327 322 322 322 321 307 301 180 205 217 249 249 250 241 259 249 238 196 224 22 137 234 158 155 218 136 177 230 188 256 175 218 85 315 263 275 278 320 346 38 81 118 147
321 321 318 318 313 310 273 244 187 194 169 209 253 259 260 251 224 223 220 255 297 315 244 188 109 247 192 221 185 183 201 143 182 264 278 271 264 230 218 116 115 112 122 143
317 318 316 311 311 260 228 198 190 192 211 317 315 284 274 262 204 228 238 247 288 240 210 168 182 229 178 248 90 236 185 185 172 219 201 186 275 200 175 155 140 135 137 139
319 314 309 307 304 239 159 173 198 201 218 342 327 301 217 221 211 220 234 232 254 265 195 237 241 238 192 164 230 257 217 223 217 202 131 198 211 173 172 156 152 147 147 148
310 308 303 299 263 209 186 185 171 189 187 223 323 329 203 161 156 192 241 180 177 255 239 216 215 214 202 199 218 242 310 242 228 211 155 118 159 170 167 164 154 151 147 147
303 298 288 272 207 180 195 158 155 168 160 191 137 280 305 186 186 161 212 192 230 235 303 334 349 284 95 260 247 236 241 195 183 185 204 234 172 160 159 159 153 148 145 146
293 269 216 169 175 181 156 128 150 163 172 164 145 154 241 186 165 136 177 227 228 299 234 162 180 195 225 233 224 199 194 173 177 162 148 153 159 156 156 157 156 151 149 152
196 135 149 173 157 171 123 126 166 181 206 213 202 153 166 193 180 49 52 358 18 292 272 309 198 258 252 244 209 195 196 195 171 144 143 158 158 161 160 162 162 158 153 153
136 161 162 139 144 133 147 112 139 164 226 211 197 175 139 187 168 149 31 173 329 288 275 288 259 265 247 227 218 206 192 188 183 198 207 179 175 166 163 163 162 158 156 155
162 123 127 152 108 134 139 161 90 201 224 197 167 155 134 140 166 111 62 140 5 249 308 291 255 253 210 195 199 196 179 184 186 187 179 175 175 170 165 160 158 158 156 155
119 182 160 145 127 163 191 177 192 213 192 185 160 128 127 117 83 70 69 108 227 333 243 239 236 252 196 189 177 173 171 176 178 168 169 168 166 165 165 158 157 157 155 155
346 122 182 196 171 235 190 207 191 227 190 151 140 102 112 117 88 123 99 151 24 321 284 239 251 199 171 163 150 164 164 169 170 165 161 160 160 158 159 158 157 156 153 151
59 28 343 304 21 343 321 294 285 264 166 153 110 82 107 105 113 113 123 119 247 221 236 235 229 163 157 158 159 162 162 162 161 161 160 157 157 155 151 151 153 156 151 151
89 74 53 338 266 227 262 231 256 169 164 153 103 110 102 146 135 123 207 145 227 248 222 238 157 156 155 155 155 157 159 163 160 158 158 155 154 152 147 148 150 153 152 150
7 254 147 271 256 263 273 250 216 188 182 161 119 123 197 91 65 264 199 210 226 263 240 161 163 163 159 156 155 157 160 157 156 155 154 150 148 151 148 145 145 148 147 148
Height
1411 1404 1398 1390 1379 1372 1369 1368 1373 1371 1378 1389 1397 1397 1399 1405 1410 1414 1418 1419 1423 1427 1429 1431 1431 1428 1424 1418 1424 1434 1435 1436 1437 1425 1413 1415 1417 1421 1422 1419 1406 1398 1395 1360
1407 1401 1395 1388 1379 1372 1368 1370 1372 1375 1373 1383 1391 1396 1400 1403 1409 1414 1416 1419 1421 1423 1428 1427 1423 1421 1418 1419 1422 1425 1427 1431 1431 1412 1408 1408 1415 1408 1409 1411 1406 1395 1390 1364
1404 1399 1392 1387 1378 1372 1369 1370 1373 1375 1382 1382 1384 1392 1400 1405 1408 1410 1412 1415 1419 1422 1422 1422 1421 1416 1414 1412 1417 1418 1420 1420 1418 1409 1400 1407 1410 1402 1404 1405 1394 1383 1377 1363
1401 1396 1391 1384 1378 1370 1368 1366 1367 1370 1379 1380 1385 1390 1395 1399 1404 1408 1409 1412 1412 1414 1417 1417 1413 1415 1415 1411 1410 1414 1418 1413 1409 1402 1397 1397 1395 1393 1394 1395 1385 1386 1361 1358
1400 1392 1386 1383 1376 1368 1364 1364 1364 1369 1372 1380 1387 1390 1393 1395 1400 1402 1403 1404 1405 1409 1410 1407 1405 1408 1411 1408 1408 1408 1410 1407 1407 1397 1389 1389 1379 1370 1379 1386 1386 1387 1380 1356
1396 1392 1387 1383 1374 1371 1368 1363 1363 1366 1375 1379 1382 1384 1386 1390 1393 1397 1396 1397 1400 1402 1399 1402 1404 1404 1406 1408 1406 1407 1408 1407 1404 1388 1381 1375 1371 1370 1360 1363 1363 1361 1356 1350
1394 1389 1384 1380 1377 1373 1371 1368 1366 1367 1373 1375 1378 1382 1385 1387 1389 1392 1392 1393 1393 1393 1393 1398 1403 1404 1403 1402 1402 1401 1401 1401 1404 1390 1381 1375 1360 1356 1356 1357 1351 1349 1347 1350
1389 1387 1383 1380 1377 1372 1368 1365 1367 1367 1370 1374 1377 1380 1382 1384 1386 1387 1385 1384 1386 1389 1393 1396 1401 1399 1400 1394 1392 1394 1395 1398 1403 1393 1385 1372 1362 1359 1358 1356 1355 1353 1356 1359
1387 1383 1380 1377 1374 1370 1367 1365 1365 1366 1368 1373 1373 1377 1380 1382 1382 1382 1380 1380 1378 1385 1387 1392 1395 1394 1391 1392 1392 1392 1393 1394 1398 1402 1391 1387 1364 1360 1357 1355 1366 1357 1357 1358
1384 1380 1376 1374 1371 1368 1367 1364 1365 1367 1368 1370 1373 1375 1377 1379 1379 1379 1378 1375 1374 1377 1382 1390 1397 1390 1390 1389 1388 1390 1397 1396 1397 1398 1394 1383 1364 1359 1356 1363 1370 1359 1358 1357
1383 1379 1375 1373 1371 1368 1366 1363 1364 1367 1368 1371 1371 1372 1375 1376 1377 1376 1377 1376 1375 1379 1378 1384 1386 1385 1387 1388 1386 1385 1390 1399 1400 1396 1395 1391 1361 1357 1359 1363 1360 1359 1357 1356
1380 1376 1374 1373 1370 1368 1366 1364 1365 1367 1370 1371 1370 1371 1372 1372 1372 1374 1374 1373 1371 1373 1376 1380 1378 1381 1385 1386 1389 1381 1386 1381 1385 1385 1381 1365 1364 1362 1361 1360 1359 1358 1356 1356
1377 1374 1373 1370 1367 1365 1364 1362 1363 1368 1370 1371 1369 1369 1369 1368 1369 1371 1373 1371 1371 1372 1371 1372 1377 1376 1381 1384 1383 1379 1375 1374 1377 1373 1367 1364 1362 1362 1362 1360 1359 1359 1359 1359
1372 1371 1369 1367 1364 1361 1360 1359 1362 1367 1369 1369 1367 1365 1365 1365 1365 1367 1368 1369 1371 1371 1371 1371 1372 1377 1374 1374 1371 1373 1370 1370 1371 1371 1364 1362 1359 1361 1362 1361 1361 1360 1362 1364
1368 1365 1364 1362 1359 1356 1357 1358 1360 1365 1369 1365 1365 1364 1365 1364 1364 1365 1367 1368 1368 1370 1370 1370 1371 1369 1370 1370 1370 1369 1362 1362 1365 1363 1356 1358 1358 1358 1361 1361 1362 1365 1366 1370
1363 1360 1358 1356 1355 1355 1356 1359 1360 1362 1365 1366 1365 1365 1365 1364 1365 1365 1366 1367 1367 1368 1366 1367 1364 1365 1366 1369 1368 1352 1352 1352 1353 1354 1354 1356 1358 1359 1361 1362 1366 1369 1371 1375
1357 1354 1352 1351 1351 1352 1354 1356 1357 1360 1364 1366 1367 1366 1365 1365 1365 1365 1365 1365 1365 1367 1365 1364 1364 1364 1365 1365 1365 1350 1350 1350 1352 1353 1354 1357 1358 1359 1362 1365 1368 1372 1376 1380
1350 1348 1347 1347 1349 1352 1353 1353 1354 1359 1364 1366 1367 1366 1366 1366 1365 1365 1365 1365 1366 1365 1363 1363 1363 1364 1363 1362 1348 1348 1349 1350 1350 1351 1353 1354 1356 1360 1364 1367 1370 1375 1379 1383
1342 1342 1344 1347 1349 1351 1352 1354 1356 1360 1365 1363 1365 1365 1367 1366 1365 1365 1366 1365 1366 1365 1363 1363 1365 1362 1361 1348 1346 1346 1347 1348 1349 1352 1353 1354 1357 1361 1365 1369 1374 1377 1382 1387
1337 1340 1345 1345 1347 1351 1352 1357 1360 1362 1361 1361 1362 1363 1365 1367 1365 1367 1368 1367 1367 1367 1364 1362 1362 1354 1344 1345 1345 1345 1346 1348 1349 1351 1355 1357 1360 1363 1367 1372 1376 1380 1384 1389
1341 1342 1341 1342 1348 1351 1354 1354 1359 1360 1361 1358 1358 1359 1363 1366 1367 1367 1369 1369 1369 1367 1368 1363 1360 1354 1342 1341 1342 1344 1345 1348 1350 1352 1354 1356 1360 1362 1367 1373 1379 1384 1388 1392
1341 1342 1343 1346 1348 1352 1353 1356 1358 1357 1356 1354 1354 1357 1359 1363 1364 1365 1370 1369 1371 1366 1369 1366 1358 1343 1340 1340 1341 1342 1344 1347 1350 1352 1354 1357 1362 1367 1372 1377 1381 1387 1392 1396
1342 1342 1342 1342 1349 1350 1347 1349 1353 1353 1348 1347 1350 1355 1357 1362 1364 1368 1370 1372 1368 1370 1369 1361 1347 1340 1340 1341 1341 1343 1345 1348 1350 1352 1355 1359 1364 1370 1375 1379 1385 1390 1394 1399
1343 1343 1343 1343 1343 1343 1343 1343 1344 1342 1342 1343 1347 1352 1356 1361 1365 1369 1373 1373 1373 1373 1379 1358 1343 1339 1341 1342 1343 1345 1347 1350 1352 1354 1357 1361 1366 1372 1378 1383 1388 1392 1396 1402
1344 1344 1341 1343 1346 1345 1345 1345 1344 1342 1343 1344 1348 1353 1356 1362 1367 1370 1371 1373 1371 1366 1353 1346 1339 1340 1342 1343 1345 1347 1349 1351 1354 1357 1360 1365 1370 1375 1380 1387 1392 1396 1400 1404
1345 1346 1347 1346 1346 1345 1345 1344 1344 1343 1344 1347 1347 1354 1357 1359 1365 1369 1370 1372 1365 1345 1342 1339 1339 1341 1343 1344 1346 1349 1351 1353 1356 1360 1365 1369 1374 1378 1383 1390 1395 1400 1404 1407
1345 1346 1346 1346 1345 1345 1344 1344 1344 1345 1345 1345 1349 1356 1353 1363 1367 1368 1362 1356 1342 1338 1338 1339 1341 1342 1344 1346 1348 1350 1353 1356 1359 1363 1368 1373 1379 1384 1388 1392 1398 1403 1408 1411